Lawrence, KS

3:23 AM CST on February 10, 2016 (GMT -0600)
Lawrence Municipal

Weather History for KLWC - December, 2011

Change the Weather History Date:

Friday, December 30, 2011

  Actual Average Record
Temperature  
Mean Temperature 43 °F 29 °F  
Max Temperature 56 °F 39 °F 71 °F (2004)
Min Temperature 29 °F 19 °F 0 °F (2000)
Degree Days  
Heating Degree Days 22 36  
Month to date heating degree days 888 1000  
Since 1 July heating degree days 1895 2008  
Cooling Degree Days 0 0  
Month to date cooling degree days 0 0  
Year to date cooling degree days 1715 1371  
Moisture  
Dew Point 30 °F    
Average Humidity 58    
Maximum Humidity 85    
Minimum Humidity 30    
Precipitation  
Precipitation 0.00 in 0.05 in 0.75 in (2006)
Month to date precipitation 3.00 1.42  
Year to date precipitation 28.15 38.50  
Sea Level Pressure  
Sea Level Pressure 29.82 in    
Wind  
Wind Speed 14 mph (WNW)    
Max Wind Speed 26 mph    
Max Gust Speed 32 mph    
Visibility 10 miles    
Events      
T = Trace of Precipitation, MM = Missing Value Source: NWS Daily Summary

Daily Weather History Graph

Daily Weather History Graph

Search for Another Location

Airport or City:

Trip Planner

Search our weather history database for the weather conditions in past years. The results will help you decide how hot, cold, wet, or windy it might be!

Date:

Astronomy

Dec. 30, 2011 Rise Set
Actual Time 7:39 AM CST 5:07 PM CST
Civil Twilight 7:09 AM CST 5:37 PM CST
Nautical Twilight 6:36 AM CST 6:10 PM CST
Astronomical Twilight 6:03 AM CST 6:43 PM CST
Moon 11:02 AM CST (12/30) 11:40 PM CST (12/30)
Length of Visible Light 10h 27m
Length of Day
9h 27m
Waxing Crescent, 36% of the Moon is Illuminated
Dec 30
Waxing Crescent
Jan 1
First Quarter
Jan 9
Full
Jan 16
Last Quarter
Jan 23
New

Hourly Weather History & Observations

Time (CST) Temp. Windchill Dew Point Humidity Pressure Visibility Wind Dir Wind Speed Gust Speed Precip Events Conditions
12:52 AM 50.0 °F - 37.9 °F 63% 29.61 in 10.0 mi West 21.9 mph 32.2 mph N/A   Clear
1:52 AM 48.9 °F - 39.0 °F 69% 29.65 in 10.0 mi WNW 24.2 mph 32.2 mph N/A   Scattered Clouds
2:52 AM 48.9 °F - 39.0 °F 69% 29.70 in 10.0 mi WNW 18.4 mph 25.3 mph N/A   Overcast
3:52 AM 46.9 °F - 37.9 °F 71% 29.72 in 10.0 mi WNW 13.8 mph - N/A   Partly Cloudy
4:52 AM 46.0 °F 39.3 °F 37.0 °F 71% 29.71 in 10.0 mi West 16.1 mph - N/A   Clear
5:52 AM 46.0 °F 38.5 °F 34.0 °F 63% 29.74 in 10.0 mi WNW 19.6 mph 26.5 mph N/A   Clear
6:52 AM 44.1 °F 36.8 °F 32.0 °F 63% 29.75 in 10.0 mi WNW 16.1 mph - N/A   Clear
7:52 AM 44.1 °F 36.8 °F 30.0 °F 58% 29.77 in 10.0 mi WNW 16.1 mph - N/A   Clear
8:52 AM 46.0 °F 38.8 °F 28.9 °F 51% 29.80 in 10.0 mi WNW 18.4 mph 29.9 mph N/A   Clear
9:52 AM 48.0 °F - 28.0 °F 46% 29.83 in 10.0 mi WNW 19.6 mph 29.9 mph N/A   Clear
10:52 AM 51.1 °F - 28.0 °F 41% 29.84 in 10.0 mi WNW 23.0 mph 28.8 mph N/A   Clear
12:52 PM 55.0 °F - 28.9 °F 37% 29.81 in 10.0 mi WNW 21.9 mph 28.8 mph N/A   Clear
1:52 PM 55.0 °F - 28.0 °F 35% 29.83 in 10.0 mi WNW 24.2 mph 29.9 mph N/A   Clear
2:52 PM 55.9 °F - 26.1 °F 32% 29.83 in 10.0 mi WNW 17.3 mph 26.5 mph N/A   Clear
3:52 PM 55.9 °F - 25.0 °F 30% 29.86 in 10.0 mi WNW 12.7 mph - N/A   Clear
4:52 PM 51.1 °F - 24.1 °F 35% 29.89 in 10.0 mi WNW 8.1 mph - N/A   Clear
5:52 PM 45.0 °F 42.6 °F 25.0 °F 46% 29.91 in 10.0 mi West 4.6 mph - N/A   Clear
6:52 PM 39.0 °F 35.7 °F 25.0 °F 57% 29.93 in 10.0 mi West 4.6 mph - N/A   Clear
7:52 PM 36.0 °F 33.3 °F 25.0 °F 64% 29.94 in 10.0 mi West 3.5 mph - N/A   Clear
8:52 PM 32.0 °F - 24.1 °F 73% 29.95 in 10.0 mi Calm Calm - N/A   Clear
9:52 PM 30.9 °F - 25.0 °F 79% 29.95 in 10.0 mi Calm Calm - N/A   Clear
10:52 PM 30.9 °F - 26.1 °F 82% 29.93 in 10.0 mi Calm Calm - N/A   Clear
11:52 PM 30.0 °F - 26.1 °F 85% 29.93 in 10.0 mi Calm Calm - N/A   Clear